[[{"header":{"parameterUnit":"m.s-1","parameterCategory":2,"la1":30.2991,"la2":30.254,"lo1":-89.0895,"lo2":-89.0444,"dy":0.0017,"dx":0.0017,"nx":28,"ny":28,"refTime":"2023-10-06T09:00:00:Z","depth":"0","parameterNumber":2,"parameterNumberName":"U-component_of_CURRENTS"},"data":[0,0,0,0,0,0,0,0,0,0,0,0,0,0,0,0,0,0,0,0,0,0,0,0,0,0,0,0,0,0,0,0,0,0,0,0,0,0,0,0,0,0,0,0,0,0,0,0,0,0,0,0,0,0,0,0,0,0,-0.1789,-0.1789,0,-0.1821,-0.1822,-0.1822,-0.1815,-0.1814,-0.1814,-0.1813,-0.1881,-0.1884,-0.1886,0,0,0,0,0,0,0,0,0,0,0,0,0,-0.175,-0.175,-0.1789,-0.1789,-0.1789,-0.1821,-0.1822,-0.1822,-0.1815,-0.1814,-0.1814,-0.1813,-0.1881,-0.1883,-0.1886,0,0,0,0,0,0,0,0,0,0,0,0,0,-0.1773,-0.1751,-0.1789,-0.179,-0.179,-0.1821,-0.1822,-0.1822,-0.1815,-0.1814,-0.1813,-0.1813,-0.188,-0.1883,-0.1887,-0.1928,0,0,-0.1898,-0.1899,0,0,0,0,0,0,0,0,-0.1772,-0.1775,-0.1789,-0.179,-0.179,-0.1813,-0.1833,-0.1859,-0.1816,-0.1806,-0.1813,-0.1812,-0.1862,-0.1867,-0.1875,-0.1931,-0.1934,-0.1898,-0.19,-0.1902,-0.1903,0,0,0,0,0,0,0,-0.177,-0.1773,-0.1802,-0.179,-0.179,-0.1799,-0.1801,-0.1838,-0.184,-0.1807,-0.1806,-0.181,-0.1863,-0.1872,-0.1877,-0.1935,-0.1898,-0.1901,-0.1903,-0.1905,-0.2051,-0.2053,0,0,0,0,0,0,-0.1765,-0.1772,-0.1801,-0.1803,-0.1778,-0.18,-0.1802,-0.1807,-0.1839,-0.1842,-0.1811,-0.1809,-0.1866,-0.1873,-0.1879,-0.1954,-0.1902,-0.1905,-0.1907,-0.2049,-0.2051,-0.2053,0,0,0,0,0,0,-0.1764,-0.1768,-0.18,-0.1788,-0.1792,-0.1801,-0.1807,-0.1808,-0.1816,-0.1841,-0.1845,-0.1817,-0.1866,-0.1874,-0.1918,-0.1956,-0.1907,-0.191,-0.2047,-0.205,-0.2052,-0.2089,0,0,0,0,0,0,-0.1763,-0.1767,-0.1773,-0.1787,-0.1793,-0.1823,-0.1808,-0.1809,-0.182,-0.1818,-0.1849,-0.1854,-0.1866,-0.1913,-0.1922,-0.196,-0.1913,-0.2045,-0.2048,-0.2051,-0.2086,-0.2093,-0.2098,0,0,0,0,0,-0.1762,-0.1777,-0.1773,-0.1777,-0.1799,-0.1824,-0.1828,-0.1831,-0.1821,-0.1833,-0.1852,-0.1853,-0.194,-0.1917,-0.1928,-0.1967,-0.2043,-0.2047,-0.2051,-0.2083,-0.2091,-0.2098,0,0,0,0,0,0,-0.1771,-0.1778,-0.1774,-0.1793,-0.1807,-0.1823,-0.1835,-0.1835,-0.1859,-0.186,-0.1874,-0.1882,-0.1935,-0.1948,-0.1922,-0.2019,-0.1993,-0.1999,-0.2014,-0.2022,-0.2028,-0.2024,-0.1916,0,0,0,0,0,-0.1773,-0.1782,-0.1794,-0.1809,-0.1815,-0.1825,-0.1835,-0.184,-0.186,-0.1869,-0.1888,-0.1919,-0.1961,-0.1985,-0.2018,-0.2074,-0.2089,-0.2107,-0.2113,-0.2119,-0.2123,-0.2176,-0.2187,-0.2066,-0.2066,-0.2066,0,0,-0.1782,-0.1787,-0.1793,-0.1811,-0.182,-0.1849,-0.1829,-0.1851,-0.1879,-0.1876,-0.192,-0.1941,-0.1979,-0.2038,-0.2064,-0.2053,-0.2164,-0.2124,-0.2128,-0.213,-0.2181,-0.2193,-0.2203,-0.2068,-0.2068,-0.2068,0,0,-0.1808,-0.1806,-0.1824,-0.1839,-0.1856,-0.1868,-0.1874,-0.1894,-0.1904,-0.1946,-0.1957,-0.1999,-0.2051,-0.2093,-0.212,-0.2185,-0.2192,-0.2196,-0.2232,-0.2284,-0.2294,-0.2303,-0.2342,-0.2355,-0.2204,-0.2204,-0.2204,0,-0.182,-0.1842,-0.1835,-0.1861,-0.188,-0.1878,-0.1913,-0.1932,-0.1964,-0.1988,-0.1964,-0.2059,-0.2082,-0.2174,-0.2189,-0.2202,-0.2221,-0.2198,-0.2291,-0.2301,-0.2309,-0.2347,-0.236,-0.2206,-0.2206,-0.2206,-0.2205,0,-0.1862,-0.1883,-0.1896,-0.1926,-0.1947,-0.1977,-0.1998,-0.2023,-0.2028,-0.205,-0.2117,-0.2143,-0.2199,-0.2218,-0.222,-0.2307,-0.2299,-0.2288,-0.2268,-0.2324,-0.236,-0.2373,-0.2209,-0.2209,-0.2208,-0.2207,0,0,-0.189,-0.192,-0.1925,-0.1947,-0.1984,-0.2007,-0.2057,-0.2109,-0.2146,-0.2171,-0.2227,-0.2288,-0.2288,-0.2318,-0.2334,-0.2374,-0.2447,-0.2353,-0.2355,-0.2385,-0.2554,-0.2566,-0.2581,-0.2448,-0.2451,-0.2452,-0.2557,0,-0.1929,-0.1978,-0.1988,-0.2049,-0.208,-0.2097,-0.2142,-0.2187,-0.2215,-0.2266,-0.2302,-0.2353,-0.2333,-0.2354,-0.2396,-0.243,-0.2482,-0.2419,-0.2502,-0.2504,-0.2502,-0.2597,-0.2385,-0.2462,-0.2569,-0.2571,-0.2573,0,-0.1975,-0.2,-0.2054,-0.2105,-0.212,-0.2157,-0.2225,-0.2263,-0.2334,-0.2352,-0.2408,-0.2425,-0.2497,-0.2455,-0.2555,-0.2512,-0.254,-0.2559,-0.2564,-0.257,-0.2541,-0.2424,-0.2481,-0.2331,-0.2592,-0.2591,-0.2589,0,-0.1995,-0.2052,-0.2091,-0.211,-0.2165,-0.2197,-0.2229,-0.2294,-0.2323,-0.2405,-0.2433,-0.2515,-0.2549,-0.2598,-0.2637,-0.2596,-0.274,-0.2691,-0.2738,-0.2738,-0.2574,-0.2556,-0.2487,-0.2778,-0.2777,-0.2777,-0.2777,0,-0.2037,-0.2071,-0.21,-0.2123,-0.2178,-0.2209,-0.2264,-0.2313,-0.2368,-0.2421,-0.2469,-0.2532,-0.2582,-0.2662,-0.2684,-0.2767,-0.2788,-0.2771,-0.2781,-0.2583,-0.2566,-0.244,-0.2443,-0.2781,-0.278,-0.2779,-0.2779,0,-0.2057,-0.2074,-0.2122,-0.2171,-0.2186,-0.2223,-0.2265,-0.2301,-0.2356,-0.2426,-0.2449,-0.2555,-0.2669,-0.2736,-0.2836,-0.2833,-0.2834,-0.2933,-0.2698,-0.268,-0.2558,-0.2573,-0.2654,-0.2592,-0.2983,-0.2984,-0.2985,0,-0.2074,-0.2094,-0.214,-0.2157,-0.2178,-0.2218,-0.224,-0.2292,-0.2327,-0.2448,-0.2489,-0.2622,-0.2728,-0.289,-0.2899,-0.297,-0.2905,-0.2826,-0.2717,-0.2553,-0.2576,-0.2593,-0.2533,-0.2504,-0.2501,-0.2499,-0.2497,0,-0.21,-0.2104,-0.2131,-0.2159,-0.2185,-0.2208,-0.2248,-0.227,-0.234,-0.2408,-0.2532,-0.2628,-0.2777,-0.2769,-0.2866,-0.2869,-0.2679,-0.2781,-0.2651,-0.2255,-0.2227,-0.2167,-0.2437,-0.2475,-0.2477,-0.2478,-0.248,-0.2481,-0.2105,-0.2118,-0.2131,-0.2159,-0.2182,-0.2194,-0.2185,-0.2243,-0.2295,-0.2385,-0.2528,-0.262,-0.2599,-0.2701,-0.2685,-0.2433,-0.2611,-0.2303,-0.2355,-0.2401,-0.2285,-0.2535,-0.2568,-0.257,-0.2573,-0.2575,-0.2576,0,-0.2109,-0.2106,-0.2127,-0.2143,-0.2144,-0.2159,-0.2178,-0.2161,-0.2207,-0.2323,-0.2435,-0.2413,-0.2352,-0.2267,-0.2041,-0.1952,-0.1882,-0.1915,-0.179,-0.1767,-0.1967,-0.1878,-0.1712,-0.1712,-0.1712,-0.1712,-0.1712,-0.1713,-0.2104,-0.2105,-0.2105,-0.2092,-0.2092,-0.2046,-0.2032,-0.2036,-0.2072,-0.2098,-0.2089,-0.2176,-0.1968,-0.1887,-0.1596,-0.1532,-0.1454,-0.1492,-0.1588,-0.1576,-0.161,-0.1643,-0.155,-0.1319,-0.1319,-0.1205,-0.1205,-0.1204]},{"header":{"parameterUnit":"m.s-1","parameterCategory":2,"la1":30.2991,"la2":30.254,"lo1":-89.0895,"lo2":-89.0444,"dy":0.0017,"dx":0.0017,"nx":28,"ny":28,"refTime":"2023-10-06T09:00:00:Z","depth":"0","parameterNumber":3,"parameterNumberName":"V-component_of_CURRENTS"},"data":[0,0,0,0,0,0,0,0,0,0,0,0,0,0,0,0,0,0,0,0,0,0,0,0,0,0,0,0,0,0,0,0,0,0,0,0,0,0,0,0,0,0,0,0,0,0,0,0,0,0,0,0,0,0,0,0,0,0,-0.1457,-0.1456,0,-0.1412,-0.1412,-0.1411,-0.1371,-0.137,-0.137,-0.1369,-0.1295,-0.1293,-0.1292,0,0,0,0,0,0,0,0,0,0,0,0,0,-0.1501,-0.1501,-0.1457,-0.1456,-0.1456,-0.1412,-0.1412,-0.1411,-0.1371,-0.137,-0.137,-0.1369,-0.1295,-0.1294,-0.1292,0,0,0,0,0,0,0,0,0,0,0,0,0,-0.1473,-0.15,-0.1457,-0.143,-0.1427,-0.1412,-0.1412,-0.1411,-0.1371,-0.137,-0.137,-0.1369,-0.1296,-0.1294,-0.1292,-0.1295,0,0,-0.1285,-0.1284,0,0,0,0,0,0,0,0,-0.1474,-0.1471,-0.1434,-0.1432,-0.1428,-0.1395,-0.14,-0.137,-0.1371,-0.1393,-0.1369,-0.1368,-0.1326,-0.1321,-0.1316,-0.1291,-0.1288,-0.1285,-0.1283,-0.1282,-0.1282,0,0,0,0,0,0,0,-0.1476,-0.1473,-0.144,-0.1434,-0.143,-0.1417,-0.1413,-0.1394,-0.1365,-0.1391,-0.1388,-0.1382,-0.1324,-0.1319,-0.1314,-0.1287,-0.1285,-0.1283,-0.1282,-0.1281,-0.1222,-0.1222,0,0,0,0,0,0,-0.1481,-0.1475,-0.1441,-0.1439,-0.1449,-0.1417,-0.1412,-0.1408,-0.1366,-0.1358,-0.1383,-0.138,-0.1323,-0.1317,-0.1311,-0.1285,-0.1282,-0.128,-0.1279,-0.1222,-0.1222,-0.1222,0,0,0,0,0,0,-0.1482,-0.1479,-0.1443,-0.1455,-0.1449,-0.1417,-0.1413,-0.1407,-0.1402,-0.1359,-0.1351,-0.1384,-0.1322,-0.1314,-0.1297,-0.1283,-0.1279,-0.1277,-0.1223,-0.1222,-0.1222,-0.1249,0,0,0,0,0,0,-0.1484,-0.148,-0.1485,-0.1455,-0.1449,-0.1441,-0.1413,-0.1407,-0.1399,-0.1396,-0.1358,-0.135,-0.1321,-0.1301,-0.1295,-0.1279,-0.1276,-0.1223,-0.1223,-0.1222,-0.1249,-0.125,-0.1251,0,0,0,0,0,-0.1486,-0.1501,-0.1486,-0.1482,-0.1455,-0.1442,-0.1438,-0.1413,-0.14,-0.1405,-0.1376,-0.1351,-0.1293,-0.13,-0.1293,-0.1276,-0.1223,-0.1223,-0.1222,-0.1248,-0.125,-0.1251,0,0,0,0,0,0,-0.1536,-0.1497,-0.148,-0.1486,-0.1466,-0.1435,-0.144,-0.142,-0.1403,-0.14,-0.1358,-0.1348,-0.1323,-0.1302,-0.1311,-0.1257,-0.125,-0.1248,-0.1272,-0.1273,-0.1274,-0.1276,-0.1274,0,0,0,0,0,-0.1546,-0.1541,-0.1506,-0.1513,-0.1504,-0.1473,-0.1467,-0.1449,-0.1426,-0.1417,-0.1387,-0.1352,-0.1316,-0.1299,-0.1271,-0.1253,-0.1234,-0.1234,-0.1235,-0.1237,-0.1233,-0.1201,-0.1199,-0.122,-0.122,-0.122,0,0,-0.1568,-0.1547,-0.1545,-0.1522,-0.1505,-0.1494,-0.1468,-0.1464,-0.1448,-0.1412,-0.1391,-0.136,-0.1314,-0.1285,-0.1271,-0.1266,-0.1222,-0.1236,-0.1237,-0.1232,-0.12,-0.1198,-0.1197,-0.122,-0.122,-0.122,0,0,-0.1607,-0.159,-0.1594,-0.1575,-0.155,-0.1525,-0.1526,-0.1495,-0.1475,-0.1452,-0.1415,-0.1378,-0.1336,-0.1292,-0.1264,-0.1257,-0.1231,-0.1248,-0.1252,-0.1222,-0.122,-0.1218,-0.1199,-0.1196,-0.1246,-0.1246,-0.1246,0,-0.1636,-0.1628,-0.1597,-0.1592,-0.1578,-0.1539,-0.1538,-0.1512,-0.1479,-0.1467,-0.1449,-0.137,-0.1331,-0.1279,-0.1268,-0.1257,-0.1246,-0.1251,-0.1224,-0.1221,-0.1219,-0.12,-0.1196,-0.1248,-0.1247,-0.1247,-0.1247,0,-0.1666,-0.1658,-0.1663,-0.1631,-0.1616,-0.1614,-0.1566,-0.1551,-0.152,-0.1492,-0.1444,-0.1385,-0.1336,-0.1311,-0.1282,-0.124,-0.1242,-0.1232,-0.1223,-0.1218,-0.1199,-0.1194,-0.1249,-0.1249,-0.1249,-0.1248,0,0,-0.173,-0.169,-0.1689,-0.168,-0.1635,-0.1629,-0.1599,-0.1566,-0.1559,-0.1501,-0.1478,-0.1391,-0.1364,-0.133,-0.1284,-0.1246,-0.1213,-0.1234,-0.1232,-0.122,-0.116,-0.1044,-0.1027,-0.1206,-0.1205,-0.1204,-0.1157,0,-0.1761,-0.1763,-0.1725,-0.1721,-0.1719,-0.1666,-0.1643,-0.1608,-0.1574,-0.1547,-0.1464,-0.1427,-0.1368,-0.1346,-0.1295,-0.1242,-0.1199,-0.1227,-0.1161,-0.1159,-0.106,-0.1016,-0.0873,-0.0808,-0.1152,-0.1151,-0.115,0,-0.1796,-0.1791,-0.1795,-0.1764,-0.1757,-0.1746,-0.1713,-0.1687,-0.1633,-0.1604,-0.1544,-0.1493,-0.1412,-0.1368,-0.1256,-0.1283,-0.1218,-0.117,-0.1167,-0.1042,-0.1032,-0.0865,-0.0785,-0.0593,-0.1142,-0.1143,-0.1143,0,-0.1856,-0.1837,-0.1842,-0.1831,-0.1791,-0.1784,-0.1761,-0.1718,-0.1707,-0.1646,-0.1642,-0.1538,-0.1498,-0.1394,-0.1275,-0.1274,-0.1164,-0.1153,-0.0984,-0.0977,-0.0829,-0.0809,-0.0553,-0.1066,-0.1066,-0.1066,-0.1066,0,-0.1901,-0.1905,-0.1876,-0.1881,-0.1895,-0.1842,-0.1851,-0.1816,-0.1778,-0.1789,-0.1681,-0.1672,-0.1505,-0.142,-0.1301,-0.1118,-0.118,-0.0965,-0.0942,-0.0834,-0.0816,-0.0622,-0.0586,-0.1064,-0.1065,-0.1065,-0.1065,0,-0.1963,-0.1939,-0.1953,-0.1929,-0.1925,-0.1939,-0.1917,-0.1929,-0.1879,-0.1889,-0.1871,-0.1777,-0.1652,-0.1475,-0.1314,-0.1153,-0.0856,-0.0918,-0.0801,-0.0761,-0.0384,-0.0358,-0.0137,-0.0036,-0.0705,-0.0702,-0.0699,0,-0.1994,-0.2008,-0.2008,-0.2027,-0.202,-0.2027,-0.2038,-0.1988,-0.2009,-0.197,-0.1993,-0.1867,-0.1794,-0.1481,-0.1136,-0.0853,-0.0753,-0.0562,-0.05,-0.031,-0.0266,-0.0269,-0.0203,-0.0334,-0.0328,-0.0323,-0.032,0,-0.2063,-0.2061,-0.2076,-0.2125,-0.2148,-0.2168,-0.2186,-0.2212,-0.217,-0.2174,-0.2186,-0.2122,-0.1745,-0.1339,-0.089,-0.0699,-0.0376,-0.0456,-0.0282,0.0048,0.0083,0.0173,-0.0444,-0.0279,-0.0283,-0.0286,-0.0288,-0.029,-0.2122,-0.2159,-0.2188,-0.2237,-0.2267,-0.2321,-0.2361,-0.2378,-0.2414,-0.2408,-0.2343,-0.2138,-0.1476,-0.0802,-0.059,0.0077,-0.0072,0.026,0.027,0.0245,0.0389,-0.0131,0.0078,0.0076,0.0075,0.0073,0.0072,0,-0.2215,-0.2247,-0.2298,-0.2366,-0.2432,-0.2409,-0.2471,-0.252,-0.2588,-0.244,-0.2412,-0.1616,-0.0987,-0.0335,0.0551,0.0803,0.0829,0.0904,0.0946,0.0973,0.0523,0.0594,0.0955,0.0955,0.0955,0.0955,0.0954,0.0954,-0.2266,-0.235,-0.238,-0.2512,-0.2548,-0.265,-0.2691,-0.2743,-0.2646,-0.2337,-0.1842,-0.1438,-0.0444,0.0665,0.1365,0.1414,0.1535,0.1525,0.1529,0.1249,0.119,0.1133,0.1215,0.17,0.1701,0.2025,0.2028,0.2031]}],[{"header":{"parameterUnit":"m.s-1","parameterCategory":2,"la1":30.2991,"la2":30.254,"lo1":-89.0895,"lo2":-89.0444,"dy":0.0017,"dx":0.0017,"nx":28,"ny":28,"refTime":"2023-10-06T09:00:00:Z","depth":"2","parameterNumber":2,"parameterNumberName":"U-component_of_CURRENTS"},"data":[0,0,0,0,0,0,0,0,0,0,0,0,0,0,0,0,0,0,0,0,0,0,0,0,0,0,0,0,0,0,0,0,0,0,0,0,0,0,0,0,0,0,0,0,0,0,0,0,0,0,0,0,0,0,0,0,0,0,-0.1147,-0.1148,0,-0.1153,-0.1152,-0.1152,-0.116,-0.116,-0.116,-0.1161,-0.1118,-0.1116,-0.1115,0,0,0,0,0,0,0,0,0,0,0,0,0,-0.1078,-0.108,-0.1147,-0.1148,-0.1148,-0.1153,-0.1152,-0.1152,-0.1159,-0.116,-0.1161,-0.1161,-0.1118,-0.1117,-0.1115,0,0,0,0,0,0,0,0,0,0,0,0,0,-0.1095,-0.108,-0.1147,-0.1155,-0.1156,-0.1153,-0.1152,-0.1152,-0.1159,-0.116,-0.1161,-0.1161,-0.1119,-0.1117,-0.1114,-0.1087,0,0,-0.1107,-0.1106,0,0,0,0,0,0,0,0,-0.1094,-0.1097,-0.1153,-0.1154,-0.1155,-0.1159,-0.1112,-0.1129,-0.1159,-0.1154,-0.1161,-0.1162,-0.1129,-0.1126,-0.1121,-0.1085,-0.1083,-0.1107,-0.1106,-0.1105,-0.1104,0,0,0,0,0,0,0,-0.1093,-0.1097,-0.1146,-0.1154,-0.1155,-0.1136,-0.1139,-0.1115,-0.1134,-0.1155,-0.1156,-0.1162,-0.1129,-0.1123,-0.112,-0.1082,-0.1107,-0.1105,-0.1104,-0.1103,-0.1038,-0.1037,0,0,0,0,0,0,-0.1103,-0.1096,-0.1146,-0.1146,-0.113,-0.1137,-0.1141,-0.1154,-0.1136,-0.1135,-0.1161,-0.1162,-0.1127,-0.1123,-0.1119,-0.1126,-0.1105,-0.1103,-0.1101,-0.1038,-0.1038,-0.1037,0,0,0,0,0,0,-0.1101,-0.1107,-0.1146,-0.1123,-0.1127,-0.1138,-0.1153,-0.1154,-0.1156,-0.1142,-0.114,-0.1164,-0.1127,-0.1122,-0.1101,-0.1122,-0.1101,-0.1099,-0.1038,-0.1038,-0.1037,-0.1113,0,0,0,0,0,0,-0.1099,-0.1107,-0.1109,-0.1125,-0.1129,-0.1146,-0.1153,-0.1154,-0.116,-0.1161,-0.1143,-0.1139,-0.1128,-0.1105,-0.1099,-0.1119,-0.1098,-0.1039,-0.1038,-0.1038,-0.1111,-0.1115,-0.1119,0,0,0,0,0,-0.1097,-0.1102,-0.1109,-0.1115,-0.1136,-0.1146,-0.1146,-0.1153,-0.116,-0.1157,-0.1146,-0.114,-0.1097,-0.1102,-0.1096,-0.1116,-0.1039,-0.1038,-0.1038,-0.1109,-0.1114,-0.1119,0,0,0,0,0,0,-0.1065,-0.1104,-0.1112,-0.1127,-0.1137,-0.1149,-0.1145,-0.1154,-0.1144,-0.1144,-0.1132,-0.1127,-0.1115,-0.1095,-0.1102,-0.1091,-0.1068,-0.1066,-0.1125,-0.1129,-0.1133,-0.1185,-0.1096,0,0,0,0,0,-0.1062,-0.1079,-0.1106,-0.1113,-0.1122,-0.1133,-0.1136,-0.1144,-0.1144,-0.1141,-0.1131,-0.1116,-0.1104,-0.1102,-0.1077,-0.1071,-0.1119,-0.1077,-0.1081,-0.1085,-0.112,-0.1196,-0.1212,-0.1035,-0.1035,-0.1035,0,0,-0.1047,-0.1073,-0.1079,-0.1107,-0.1115,-0.1133,-0.1136,-0.1143,-0.1164,-0.1135,-0.1143,-0.1121,-0.11,-0.1097,-0.1091,-0.1088,-0.1163,-0.1084,-0.1088,-0.1122,-0.1197,-0.1215,-0.1231,-0.1034,-0.1034,-0.1034,0,0,-0.1032,-0.1054,-0.1066,-0.1083,-0.1106,-0.1122,-0.1128,-0.1144,-0.1156,-0.1155,-0.1147,-0.1151,-0.1113,-0.113,-0.1128,-0.1136,-0.1173,-0.1109,-0.1187,-0.126,-0.1277,-0.1292,-0.1402,-0.1427,-0.1123,-0.1123,-0.1123,0,-0.1005,-0.1043,-0.1064,-0.1085,-0.111,-0.1123,-0.1147,-0.1158,-0.1164,-0.1196,-0.1162,-0.1171,-0.1142,-0.1191,-0.1191,-0.1154,-0.1209,-0.1177,-0.1272,-0.1288,-0.1303,-0.1411,-0.1437,-0.1127,-0.1126,-0.1126,-0.1126,0,-0.101,-0.104,-0.1047,-0.1092,-0.1116,-0.1134,-0.1171,-0.1193,-0.1207,-0.1232,-0.1269,-0.124,-0.126,-0.1242,-0.1218,-0.1304,-0.1316,-0.1265,-0.1275,-0.1326,-0.1436,-0.1462,-0.1132,-0.1131,-0.113,-0.1129,0,0,-0.0944,-0.1035,-0.1036,-0.1078,-0.1129,-0.1155,-0.1204,-0.127,-0.1344,-0.1326,-0.1423,-0.1386,-0.139,-0.1388,-0.1365,-0.1428,-0.1569,-0.1396,-0.1398,-0.1535,-0.1773,-0.1639,-0.1656,-0.1536,-0.154,-0.1543,-0.1819,0,-0.0937,-0.0998,-0.1048,-0.1107,-0.1145,-0.1204,-0.1266,-0.133,-0.1385,-0.1475,-0.1483,-0.1531,-0.144,-0.1462,-0.1507,-0.1545,-0.1637,-0.1502,-0.1678,-0.1685,-0.1583,-0.168,-0.1424,-0.1634,-0.1845,-0.1849,-0.1852,0,-0.0921,-0.0977,-0.1042,-0.1164,-0.1189,-0.1229,-0.1374,-0.1425,-0.1557,-0.1605,-0.1666,-0.1682,-0.1757,-0.1669,-0.18,-0.1716,-0.1763,-0.1797,-0.1807,-0.1679,-0.1598,-0.1608,-0.1674,-0.1896,-0.1893,-0.1889,-0.1887,0,-0.0881,-0.0973,-0.1039,-0.1071,-0.12,-0.1258,-0.1325,-0.1462,-0.1553,-0.1694,-0.179,-0.1858,-0.1919,-0.1964,-0.1984,-0.1916,-0.2157,-0.2067,-0.2017,-0.2011,-0.1827,-0.1794,-0.2212,-0.2211,-0.2211,-0.221,-0.2209,0,-0.0863,-0.0911,-0.1028,-0.1062,-0.1165,-0.1249,-0.1384,-0.1472,-0.164,-0.1778,-0.1838,-0.196,-0.1996,-0.2109,-0.21,-0.214,-0.2246,-0.2079,-0.2077,-0.1841,-0.1809,-0.2039,-0.2015,-0.222,-0.2218,-0.2216,-0.2214,0,-0.0809,-0.0881,-0.0964,-0.1101,-0.1147,-0.1213,-0.1397,-0.1515,-0.1658,-0.1852,-0.1902,-0.2085,-0.221,-0.2263,-0.2389,-0.2294,-0.2343,-0.2342,-0.2076,-0.2033,-0.2137,-0.2114,-0.2333,-0.233,-0.2328,-0.2327,-0.2325,0,-0.0792,-0.0825,-0.097,-0.1034,-0.1095,-0.1213,-0.1321,-0.1489,-0.163,-0.1915,-0.202,-0.2217,-0.2305,-0.2436,-0.2313,-0.2313,-0.2407,-0.2119,-0.1908,-0.2177,-0.2153,-0.2132,-0.2112,-0.1733,-0.1727,-0.1722,-0.1718,0,-0.0757,-0.0807,-0.0884,-0.1014,-0.1121,-0.1253,-0.1413,-0.1526,-0.1753,-0.191,-0.2136,-0.2222,-0.2297,-0.2147,-0.2117,-0.2067,-0.2069,-0.2013,-0.242,-0.1693,-0.1619,-0.1592,-0.1591,-0.1673,-0.1678,-0.1681,-0.1684,-0.1685,-0.073,-0.0775,-0.0885,-0.1004,-0.1133,-0.1284,-0.1357,-0.1545,-0.1723,-0.1886,-0.2053,-0.2053,-0.1992,-0.1753,-0.1715,-0.1672,-0.179,-0.1695,-0.1709,-0.1728,-0.156,-0.148,-0.1484,-0.1487,-0.149,-0.1492,-0.1494,0,-0.071,-0.0781,-0.0881,-0.1038,-0.1156,-0.1231,-0.1425,-0.1466,-0.1613,-0.168,-0.176,-0.15,-0.1389,-0.1408,-0.1211,-0.1166,-0.1131,-0.1179,-0.112,-0.1163,-0.1201,-0.1004,-0.0783,-0.0782,-0.078,-0.0779,0,0,-0.0713,-0.0792,-0.085,-0.1019,-0.1121,-0.123,-0.1298,-0.1335,-0.1355,-0.1281,-0.12,-0.1196,-0.1249,-0.0949,-0.0908,-0.084,-0.0997,-0.0796,-0.1349,-0.1314,-0.1351,-0.1463,-0.1203,0,0,0,0,0]},{"header":{"parameterUnit":"m.s-1","parameterCategory":2,"la1":30.2991,"la2":30.254,"lo1":-89.0895,"lo2":-89.0444,"dy":0.0017,"dx":0.0017,"nx":28,"ny":28,"refTime":"2023-10-06T09:00:00:Z","depth":"2","parameterNumber":3,"parameterNumberName":"V-component_of_CURRENTS"},"data":[0,0,0,0,0,0,0,0,0,0,0,0,0,0,0,0,0,0,0,0,0,0,0,0,0,0,0,0,0,0,0,0,0,0,0,0,0,0,0,0,0,0,0,0,0,0,0,0,0,0,0,0,0,0,0,0,0,0,0.0809,0.0809,0,0.0827,0.0827,0.0827,0.0829,0.0829,0.0828,0.0828,0.0846,0.0847,0.0848,0,0,0,0,0,0,0,0,0,0,0,0,0,0.0804,0.0804,0.0809,0.0809,0.0809,0.0827,0.0827,0.0827,0.0829,0.0829,0.0828,0.0828,0.0846,0.0847,0.0848,0,0,0,0,0,0,0,0,0,0,0,0,0,0.0814,0.0804,0.0809,0.081,0.081,0.0826,0.0827,0.0828,0.0829,0.0829,0.0828,0.0828,0.0845,0.0847,0.0848,0.0867,0,0,0.0852,0.0852,0,0,0,0,0,0,0,0,0.0814,0.0815,0.081,0.081,0.081,0.0823,0.0832,0.084,0.0829,0.0824,0.0828,0.0827,0.0837,0.0839,0.0847,0.0868,0.0868,0.0852,0.0852,0.0853,0.0853,0,0,0,0,0,0,0,0.0813,0.0814,0.0818,0.081,0.081,0.0819,0.082,0.0834,0.0835,0.0825,0.0824,0.0823,0.0838,0.0846,0.0847,0.0869,0.0852,0.0853,0.0854,0.0854,0.0843,0.0842,0,0,0,0,0,0,0.0806,0.0813,0.0817,0.0818,0.0808,0.082,0.0821,0.0821,0.0835,0.0836,0.0824,0.0823,0.0844,0.0846,0.0848,0.0801,0.0853,0.0854,0.0855,0.0844,0.0842,0.0841,0,0,0,0,0,0,0.0806,0.0806,0.0817,0.0814,0.0816,0.082,0.0821,0.0822,0.0818,0.0834,0.0835,0.0817,0.0843,0.0846,0.0854,0.0805,0.0855,0.0856,0.0845,0.0843,0.0842,0.0753,0,0,0,0,0,0,0.0806,0.0806,0.08,0.0814,0.0816,0.0823,0.0821,0.0823,0.0818,0.0817,0.0829,0.0831,0.0843,0.0852,0.0855,0.0807,0.0857,0.0846,0.0844,0.0842,0.0758,0.0749,0.0742,0,0,0,0,0,0.0805,0.08,0.08,0.08,0.0809,0.0822,0.0825,0.0827,0.0818,0.0821,0.0826,0.083,0.084,0.0853,0.0856,0.0808,0.0847,0.0845,0.0842,0.0761,0.0751,0.0742,0,0,0,0,0,0,0.0794,0.08,0.08,0.0796,0.0806,0.0822,0.0815,0.082,0.0827,0.0815,0.0833,0.0836,0.0821,0.0836,0.0849,0.08,0.0838,0.0836,0.0774,0.0765,0.0757,0.0752,0.0858,0,0,0,0,0,0.0788,0.0784,0.0797,0.0792,0.0792,0.0801,0.0803,0.0805,0.0814,0.0815,0.0821,0.0821,0.0817,0.0809,0.0819,0.0801,0.0832,0.0768,0.076,0.0753,0.0752,0.0758,0.0751,0.0833,0.0833,0.0834,0,0,0.0779,0.0783,0.0779,0.0789,0.079,0.0783,0.0801,0.0796,0.0781,0.0816,0.0794,0.0803,0.0811,0.0787,0.0778,0.0788,0.0748,0.075,0.0744,0.0746,0.0755,0.0747,0.074,0.0832,0.0832,0.0832,0,0,0.0758,0.0762,0.0749,0.0754,0.0754,0.0762,0.0757,0.0765,0.0757,0.0749,0.0757,0.0749,0.0744,0.0738,0.0733,0.0691,0.0715,0.0675,0.0615,0.0621,0.0614,0.0609,0.0649,0.0648,0.0657,0.0657,0.0657,0,0.0741,0.0728,0.0748,0.0737,0.0723,0.0747,0.0722,0.0728,0.0736,0.0717,0.0729,0.0709,0.072,0.068,0.0656,0.0671,0.0688,0.0648,0.061,0.0605,0.0601,0.0644,0.0643,0.0653,0.0653,0.0654,0.0654,0,0.0716,0.0696,0.0686,0.0675,0.0673,0.0655,0.0661,0.0651,0.064,0.0639,0.0607,0.0629,0.0609,0.0601,0.0612,0.0568,0.0597,0.0608,0.0632,0.0587,0.0635,0.0637,0.0646,0.0648,0.0649,0.065,0,0,0.0681,0.0667,0.0657,0.0627,0.0629,0.0616,0.0592,0.0568,0.0528,0.0541,0.0495,0.049,0.0495,0.0492,0.0502,0.0502,0.0492,0.0525,0.0528,0.0563,0.052,0.0592,0.0602,0.0483,0.0482,0.0482,0.057,0,0.064,0.0594,0.0602,0.0542,0.0512,0.0517,0.0485,0.0469,0.0459,0.0431,0.0446,0.0417,0.0454,0.0426,0.0434,0.0477,0.0488,0.0468,0.0562,0.0566,0.0632,0.0602,0.0497,0.0571,0.0572,0.0572,0.0572,0,0.0603,0.0572,0.0505,0.0446,0.0429,0.0397,0.0332,0.0309,0.0293,0.0282,0.0273,0.03,0.0302,0.0341,0.0402,0.0381,0.0438,0.0487,0.0491,0.0591,0.0639,0.0615,0.0574,0.0575,0.0575,0.0575,0.0575,0,0.0551,0.0496,0.0428,0.0412,0.0363,0.0311,0.0277,0.0247,0.0203,0.0185,0.0158,0.019,0.0189,0.0264,0.0369,0.0371,0.0458,0.048,0.0611,0.0619,0.0567,0.0572,0.0525,0.0525,0.0525,0.0525,0.0524,0,0.0503,0.0444,0.0387,0.0347,0.025,0.0234,0.0131,0.0112,0.0067,0.0003,0.0066,0.0046,0.0161,0.0233,0.0341,0.0487,0.0439,0.0606,0.0638,0.0538,0.0538,0.057,0.0574,0.0528,0.0527,0.0527,0.0526,0,0.0459,0.0426,0.034,0.0257,0.0221,0.0146,0.0042,-0.0036,-0.0055,-0.013,-0.0143,-0.0075,0.004,0.0191,0.033,0.0447,0.0582,0.0644,0.0543,0.0563,0.0754,0.0752,0.081,0.0814,0.0816,0.0818,0.082,0,0.0439,0.0385,0.0272,0.0206,0.0156,0.0047,-0.0045,-0.0101,-0.0175,-0.0203,-0.0246,-0.0144,-0.0058,0.0216,0.0404,0.0631,0.0653,0.0695,0.0694,0.0753,0.0779,0.0773,0.0768,0.0592,0.0592,0.0591,0.0591,0,0.0389,0.0336,0.0265,0.0135,0.002,-0.0107,-0.0229,-0.0293,-0.0366,-0.0392,-0.0396,-0.0316,-0.0055,0.0172,0.0489,0.0603,0.0658,0.0706,0.0753,0.0553,0.0558,0.0581,0.058,0.059,0.059,0.059,0.059,0.059,0.0345,0.028,0.0175,0.0049,-0.0091,-0.026,-0.0367,-0.046,-0.0553,-0.0574,-0.0476,-0.0339,-0.0088,0.0346,0.0525,0.0677,0.0716,0.0761,0.0755,0.0751,0.0727,0.0738,0.0801,0.0802,0.0803,0.0804,0.0805,0,0.0297,0.0205,0.0092,-0.0085,-0.0247,-0.0321,-0.0501,-0.0571,-0.0668,-0.0604,-0.0537,-0.0251,0.0016,0.0272,0.0495,0.0689,0.0622,0.0727,0.0592,0.0593,0.0593,0.0556,0.0588,0.0588,0.0588,0.0588,0,0,0.0261,0.015,0.0087,-0.0181,-0.0335,-0.0574,-0.0685,-0.0733,-0.0707,-0.0604,-0.049,-0.0269,0.0025,0.0177,0.0379,0.0476,0.0483,0.0472,0.0621,0.0435,0.0434,0.0584,0.0525,0,0,0,0,0]}],[{"header":{"parameterUnit":"m.s-1","parameterCategory":2,"la1":30.2991,"la2":30.254,"lo1":-89.0895,"lo2":-89.0444,"dy":0.0017,"dx":0.0017,"nx":28,"ny":28,"refTime":"2023-10-06T09:00:00:Z","depth":"4","parameterNumber":2,"parameterNumberName":"U-component_of_CURRENTS"},"data":[0,0,0,0,0,0,0,0,0,0,0,0,0,0,0,0,0,0,0,0,0,0,0,0,0,0,0,0,0,0,0,0,0,0,0,0,0,0,0,0,0,0,0,0,0,0,0,0,0,0,0,0,0,0,0,0,0,0,-0.0731,-0.0731,0,-0.0765,-0.0766,-0.0766,-0.0793,-0.0793,-0.0793,-0.0794,-0.0793,-0.0793,-0.0792,0,0,0,0,0,0,0,0,0,0,0,0,0,-0.0676,-0.0676,-0.0731,-0.0731,-0.0732,-0.0765,-0.0766,-0.0766,-0.0792,-0.0793,-0.0793,-0.0794,-0.0793,-0.0793,-0.0792,0,0,0,0,0,0,0,0,0,0,0,0,0,-0.0702,-0.0677,-0.0731,-0.0751,-0.0753,-0.0765,-0.0766,-0.0766,-0.0792,-0.0793,-0.0794,-0.0794,-0.0793,-0.0793,-0.0792,-0.0775,0,0,-0.079,-0.079,0,0,0,0,0,0,0,0,-0.07,-0.0704,-0.0747,-0.0749,-0.0752,-0.0777,-0.0746,-0.0768,-0.0792,-0.0775,-0.0794,-0.0795,-0.0785,-0.0785,-0.0788,-0.0775,-0.0775,-0.079,-0.079,-0.0789,-0.0789,0,0,0,0,0,0,0,-0.0699,-0.0702,-0.0742,-0.0748,-0.0751,-0.0754,-0.0758,-0.075,-0.0774,-0.0777,-0.0779,-0.0786,-0.0786,-0.0789,-0.0788,-0.0775,-0.079,-0.0789,-0.0789,-0.0789,-0.077,-0.0769,0,0,0,0,0,0,-0.0698,-0.0701,-0.0741,-0.0744,-0.073,-0.0755,-0.0759,-0.0767,-0.0775,-0.0778,-0.0786,-0.0787,-0.0789,-0.0789,-0.0788,-0.0803,-0.0789,-0.0789,-0.0788,-0.077,-0.077,-0.0769,0,0,0,0,0,0,-0.0697,-0.0702,-0.074,-0.0724,-0.073,-0.0755,-0.0763,-0.0767,-0.0783,-0.0782,-0.0784,-0.0799,-0.079,-0.0789,-0.079,-0.0802,-0.0788,-0.0788,-0.077,-0.077,-0.077,-0.0811,0,0,0,0,0,0,-0.0695,-0.0701,-0.0708,-0.0724,-0.0731,-0.0755,-0.0763,-0.0767,-0.0787,-0.079,-0.0794,-0.0794,-0.079,-0.0791,-0.0789,-0.0801,-0.0787,-0.077,-0.077,-0.077,-0.081,-0.0812,-0.0814,0,0,0,0,0,-0.0693,-0.0701,-0.0708,-0.0713,-0.0739,-0.0756,-0.0759,-0.0778,-0.0787,-0.0794,-0.0797,-0.0795,-0.0788,-0.079,-0.0789,-0.08,-0.077,-0.077,-0.077,-0.0809,-0.0812,-0.0814,0,0,0,0,0,0,-0.0681,-0.0705,-0.0713,-0.0728,-0.0744,-0.0761,-0.0771,-0.0783,-0.0792,-0.0796,-0.0794,-0.0794,-0.0797,-0.0788,-0.0791,-0.0791,-0.0778,-0.0778,-0.0808,-0.0811,-0.0813,-0.0823,-0.0787,0,0,0,0,0,-0.068,-0.0692,-0.0714,-0.0726,-0.0736,-0.0754,-0.0765,-0.0778,-0.0788,-0.0794,-0.0798,-0.0796,-0.0791,-0.0794,-0.0785,-0.0788,-0.0797,-0.0792,-0.0795,-0.0797,-0.0801,-0.0831,-0.0837,-0.0768,-0.0769,-0.0769,0,0,-0.0678,-0.0693,-0.07,-0.0724,-0.0738,-0.0751,-0.0762,-0.0782,-0.0795,-0.079,-0.0806,-0.0801,-0.079,-0.0794,-0.0795,-0.0793,-0.082,-0.0796,-0.0799,-0.0802,-0.0831,-0.0838,-0.0845,-0.0768,-0.0768,-0.0768,0,0,-0.0677,-0.0694,-0.0704,-0.0719,-0.0744,-0.0755,-0.0764,-0.0787,-0.0801,-0.0811,-0.081,-0.0816,-0.0809,-0.0812,-0.0809,-0.0816,-0.0827,-0.0812,-0.084,-0.0869,-0.0875,-0.0881,-0.0904,-0.0912,-0.0819,-0.0819,-0.0819,0,-0.0673,-0.0689,-0.0709,-0.0722,-0.0735,-0.0758,-0.077,-0.0785,-0.0806,-0.0821,-0.0818,-0.083,-0.0817,-0.0834,-0.0834,-0.0823,-0.0842,-0.0834,-0.0875,-0.088,-0.0886,-0.0908,-0.0916,-0.0821,-0.0821,-0.0821,-0.0821,0,-0.0677,-0.0693,-0.0701,-0.0724,-0.074,-0.0754,-0.0779,-0.0798,-0.0815,-0.0835,-0.0859,-0.0854,-0.0867,-0.0861,-0.0848,-0.088,-0.0882,-0.0872,-0.0874,-0.0896,-0.0917,-0.0925,-0.0824,-0.0823,-0.0823,-0.0822,0,0,-0.0652,-0.0695,-0.0697,-0.0709,-0.0743,-0.0753,-0.0781,-0.0812,-0.0839,-0.0862,-0.0904,-0.0892,-0.0912,-0.0908,-0.0906,-0.0926,-0.0971,-0.0919,-0.092,-0.0954,-0.1043,-0.0973,-0.0974,-0.098,-0.0982,-0.0983,-0.1044,0,-0.0647,-0.067,-0.0694,-0.0713,-0.0725,-0.0758,-0.0782,-0.0816,-0.0849,-0.0896,-0.0919,-0.0945,-0.0926,-0.094,-0.0962,-0.0973,-0.0993,-0.0956,-0.1006,-0.1007,-0.0953,-0.0981,-0.0987,-0.105,-0.1052,-0.1053,-0.1054,0,-0.0635,-0.0654,-0.0675,-0.0712,-0.0721,-0.0736,-0.0784,-0.0808,-0.088,-0.0912,-0.0963,-0.0993,-0.1037,-0.1011,-0.1063,-0.1047,-0.1045,-0.1047,-0.105,-0.0975,-0.0951,-0.1021,-0.1068,-0.1067,-0.1066,-0.1065,-0.1064,0,-0.0599,-0.0636,-0.0651,-0.0663,-0.0711,-0.0727,-0.075,-0.0811,-0.0839,-0.0929,-0.0975,-0.104,-0.1075,-0.1103,-0.111,-0.1099,-0.1162,-0.1148,-0.1084,-0.1079,-0.1107,-0.11,-0.1174,-0.1174,-0.1174,-0.1174,-0.1173,0,-0.0575,-0.0587,-0.0634,-0.0642,-0.0657,-0.0701,-0.0726,-0.0771,-0.0845,-0.0886,-0.098,-0.1021,-0.1099,-0.1146,-0.1146,-0.1143,-0.1195,-0.1095,-0.1092,-0.1121,-0.1115,-0.1113,-0.1105,-0.1176,-0.1175,-0.1175,-0.1175,0,-0.053,-0.0565,-0.0581,-0.0629,-0.0638,-0.0647,-0.0689,-0.0707,-0.0801,-0.0866,-0.09,-0.1019,-0.1083,-0.1149,-0.1193,-0.1173,-0.118,-0.1155,-0.119,-0.1188,-0.1073,-0.1067,-0.1113,-0.1111,-0.1109,-0.1108,-0.1106,0,-0.0509,-0.0514,-0.0556,-0.056,-0.0577,-0.0593,-0.0595,-0.0665,-0.0689,-0.084,-0.0864,-0.0977,-0.1046,-0.1078,-0.1134,-0.117,-0.114,-0.1152,-0.1102,-0.1075,-0.1069,-0.1065,-0.106,-0.1104,-0.1103,-0.1103,-0.1103,0,-0.0464,-0.0485,-0.0502,-0.0509,-0.0508,-0.0501,-0.0519,-0.0529,-0.0624,-0.0727,-0.0814,-0.0888,-0.0966,-0.1023,-0.1063,-0.1071,-0.116,-0.1135,-0.1138,-0.1091,-0.1065,-0.1059,-0.1057,-0.1097,-0.1098,-0.1098,-0.1099,0,-0.0429,-0.0428,-0.0451,-0.0453,-0.0445,-0.0415,-0.0429,-0.0459,-0.0495,-0.0674,-0.0683,-0.0829,-0.0929,-0.0969,-0.0995,-0.1023,-0.1007,-0.0981,-0.0991,-0.0998,-0.0935,-0.0883,-0.0864,0,0,0,0,0,-0.0386,-0.0384,-0.039,-0.0382,-0.037,-0.0363,-0.0383,-0.0407,-0.05,-0.0536,-0.0617,-0.0688,-0.0786,-0.0844,-0.0851,-0.0938,-0.0999,-0.0942,-0.0969,-0.1066,-0.1072,-0.1009,0,0,0,0,0,0,-0.036,-0.0364,-0.0375,-0.0321,-0.0299,-0.0267,-0.0271,-0.0333,-0.0356,-0.048,-0.0523,-0.0645,-0.0728,-0.0775,-0.0838,-0.0859,-0.0862,-0.1025,-0.1023,-0.1062,-0.1068,-0.1073,-0.101,0,0,0,0,0]},{"header":{"parameterUnit":"m.s-1","parameterCategory":2,"la1":30.2991,"la2":30.254,"lo1":-89.0895,"lo2":-89.0444,"dy":0.0017,"dx":0.0017,"nx":28,"ny":28,"refTime":"2023-10-06T09:00:00:Z","depth":"4","parameterNumber":3,"parameterNumberName":"V-component_of_CURRENTS"},"data":[0,0,0,0,0,0,0,0,0,0,0,0,0,0,0,0,0,0,0,0,0,0,0,0,0,0,0,0,0,0,0,0,0,0,0,0,0,0,0,0,0,0,0,0,0,0,0,0,0,0,0,0,0,0,0,0,0,0,0.0498,0.0499,0,0.0542,0.0543,0.0543,0.0576,0.0576,0.0576,0.0576,0.0621,0.0622,0.0623,0,0,0,0,0,0,0,0,0,0,0,0,0,0.0468,0.0468,0.0498,0.0499,0.0499,0.0542,0.0543,0.0543,0.0576,0.0576,0.0576,0.0576,0.062,0.0622,0.0623,0,0,0,0,0,0,0,0,0,0,0,0,0,0.0494,0.0468,0.0498,0.052,0.0522,0.0542,0.0543,0.0544,0.0576,0.0576,0.0576,0.0576,0.062,0.0621,0.0623,0.0627,0,0,0.0628,0.0628,0,0,0,0,0,0,0,0,0.0493,0.0496,0.0516,0.0518,0.0521,0.0553,0.0548,0.0571,0.0576,0.0557,0.0576,0.0577,0.0597,0.06,0.061,0.0629,0.0631,0.0628,0.0629,0.0629,0.063,0,0,0,0,0,0,0,0.0491,0.0494,0.0517,0.0516,0.0519,0.0535,0.0539,0.0553,0.0576,0.0558,0.056,0.0563,0.0598,0.0608,0.0611,0.0632,0.0628,0.0629,0.063,0.0631,0.0651,0.0651,0,0,0,0,0,0,0.0481,0.0492,0.0516,0.0518,0.0506,0.0536,0.054,0.0543,0.0576,0.0581,0.0563,0.0565,0.0606,0.0609,0.0613,0.0611,0.0629,0.0631,0.0632,0.0651,0.0651,0.0651,0,0,0,0,0,0,0.0481,0.0483,0.0514,0.0505,0.051,0.0535,0.0539,0.0544,0.0561,0.0579,0.0584,0.0575,0.0606,0.0611,0.0624,0.0613,0.0631,0.0633,0.0652,0.0651,0.0651,0.0613,0,0,0,0,0,0,0.048,0.0483,0.0487,0.0504,0.051,0.0526,0.0539,0.0544,0.0561,0.0564,0.0591,0.0595,0.0606,0.0622,0.0625,0.0616,0.0634,0.0652,0.0652,0.0651,0.0614,0.0611,0.0608,0,0,0,0,0,0.0478,0.0481,0.0487,0.049,0.0514,0.0526,0.0531,0.055,0.0561,0.0567,0.0583,0.0595,0.062,0.0623,0.0627,0.0618,0.0653,0.0652,0.0651,0.0616,0.0612,0.0608,0,0,0,0,0,0,0.0474,0.0485,0.0492,0.05,0.0512,0.0531,0.054,0.0553,0.0571,0.0575,0.0594,0.0599,0.0604,0.0618,0.0621,0.0621,0.0637,0.0637,0.0608,0.0605,0.0601,0.0583,0.0635,0,0,0,0,0,0.0473,0.0477,0.049,0.0497,0.0502,0.0522,0.0532,0.0544,0.0559,0.0569,0.0586,0.0599,0.0603,0.0611,0.062,0.0625,0.0647,0.0621,0.0617,0.0614,0.0603,0.0632,0.063,0.0648,0.0648,0.0648,0,0,0.0474,0.048,0.0483,0.0496,0.0509,0.0506,0.053,0.0542,0.0537,0.0569,0.0574,0.0591,0.0602,0.0602,0.0606,0.0614,0.0623,0.0613,0.0611,0.06,0.0631,0.0629,0.0628,0.0647,0.0647,0.0647,0,0,0.0467,0.0481,0.0478,0.0483,0.0496,0.0503,0.0506,0.0526,0.0533,0.054,0.0554,0.0563,0.0583,0.0581,0.0583,0.0568,0.0604,0.0577,0.0547,0.0576,0.0575,0.0574,0.0609,0.0611,0.0576,0.0576,0.0576,0,0.0466,0.046,0.048,0.0474,0.047,0.0498,0.0485,0.0496,0.0517,0.0511,0.0536,0.0553,0.0565,0.0552,0.0544,0.0558,0.0589,0.0561,0.0571,0.0571,0.0571,0.0607,0.061,0.0574,0.0574,0.0575,0.0575,0,0.0449,0.0446,0.0444,0.0439,0.044,0.0437,0.0444,0.0447,0.0461,0.0469,0.0473,0.0501,0.0508,0.0514,0.0523,0.0521,0.0549,0.0564,0.0581,0.0567,0.0606,0.061,0.0571,0.0572,0.0573,0.0573,0,0,0.0438,0.0431,0.043,0.0411,0.0417,0.0409,0.0398,0.0385,0.0366,0.0405,0.0391,0.0407,0.0436,0.044,0.0465,0.0487,0.0513,0.0523,0.0526,0.0557,0.0591,0.0538,0.0538,0.0541,0.0541,0.0541,0.0622,0,0.0415,0.0389,0.0391,0.0355,0.0338,0.0344,0.0322,0.0317,0.0325,0.0323,0.036,0.0363,0.0405,0.0414,0.0444,0.0498,0.0522,0.0491,0.06,0.0603,0.0557,0.0539,0.0542,0.0625,0.0626,0.0627,0.0628,0,0.039,0.0372,0.0339,0.0294,0.0285,0.0269,0.0229,0.0214,0.0217,0.0225,0.0252,0.0292,0.033,0.037,0.0467,0.0453,0.051,0.0557,0.0562,0.0524,0.0557,0.0641,0.0636,0.0635,0.0634,0.0634,0.0633,0,0.0361,0.0326,0.0294,0.0284,0.0249,0.0225,0.0202,0.0187,0.0158,0.0174,0.0172,0.0236,0.0273,0.0361,0.0467,0.0474,0.0577,0.0602,0.0607,0.0606,0.0649,0.0649,0.0653,0.0652,0.0652,0.0652,0.0652,0,0.0326,0.0297,0.0277,0.0259,0.0202,0.019,0.0131,0.0118,0.0098,0.0066,0.013,0.0138,0.0274,0.0353,0.0453,0.0543,0.0574,0.059,0.0614,0.0633,0.063,0.0653,0.0652,0.0655,0.0654,0.0654,0.0653,0,0.0299,0.0292,0.0249,0.0209,0.0192,0.0152,0.0085,0.004,0.0034,0.0003,0.001,0.0076,0.0181,0.031,0.0452,0.0509,0.0607,0.0627,0.0637,0.0663,0.0625,0.0621,0.0644,0.0642,0.0641,0.064,0.0639,0,0.0281,0.0262,0.0219,0.0191,0.0174,0.0113,0.0066,0.0021,-0.0024,-0.0034,-0.0048,0.0034,0.0096,0.0269,0.04,0.0572,0.0585,0.0632,0.0618,0.0598,0.062,0.0618,0.0616,0.0637,0.0637,0.0637,0.0636,0,0.0242,0.0239,0.0208,0.0164,0.0116,0.0045,-0.002,-0.0069,-0.0116,-0.0116,-0.0099,-0.0016,0.0089,0.0242,0.0364,0.0489,0.0602,0.062,0.0623,0.0611,0.0591,0.0613,0.0613,0.0632,0.0633,0.0633,0.0634,0,0.0219,0.0195,0.0171,0.0125,0.0075,0.0003,-0.0047,-0.0101,-0.0149,-0.0164,-0.015,-0.003,0.0047,0.0198,0.0319,0.0425,0.0449,0.0475,0.0487,0.0493,0.0415,0.0366,0.0346,0,0,0,0,0,0.0195,0.0173,0.0129,0.0079,0.0034,0.0011,-0.0089,-0.0137,-0.0185,-0.0183,-0.0176,-0.0078,0.0078,0.0156,0.0253,0.0298,0.0469,0.041,0.0506,0.061,0.0614,0.0541,0,0,0,0,0,0,0.0178,0.0147,0.0127,0.0065,0.0039,-0.0027,-0.0085,-0.0129,-0.0141,-0.0159,-0.0069,-0.0043,0.0123,0.0057,0.0275,0.0303,0.037,0.0489,0.049,0.0607,0.0611,0.0615,0.0542,0,0,0,0,0]}]]